Weather in Tlyadal

Russia / Republic of Dagestan     42°07′31″N   46°14′18″E
temp.,
°C
wind,
m/s
gust,
m/s
humid.,
%
clouds,
%
prec.,
mm/h
press.,
hPa
HPBL,
m
9 december, thu
thu900:00−5w118511 0.0 101712
03:00−4sw329291 0.1 101529
06:00−4ssw2298100 1.8 101466
09:00−2sw2398100 2.2 1013204
12:00−1sw2285100 0.2 1013586
15:00−2nnw1295100 1.6 1014256
18:00−4nnw1190100 1.4 101929
21:00−7nnw118798 1.4 102310
10 december, fri
fri1000:00−8wnw118831 0.0 102523
03:00−9wsw119056 0.0 102727
06:00−8sw119885 0.0 102712
09:00−5ssw239496 0.1 1026159
12:00−3ssw348799 0.2 1023584
15:00−4sw228880 0.8 1024220
18:00−9n119973 0.1 103010
21:00−10nw119444 0.1 103210
11 december, sat
sat1100:00−11w119761 0.0 103310
03:00−10w119757 0.0 103215
06:00−10wnw119436 0.0 103220
09:00−6wsw11662 0.0 102826
12:00−1wsw11535 0.0 1022131
15:00−2nnw11685 0.0 102210
18:00−6n333912 0.0 102917
21:00−6n224341 0.0 102813
12 december, sun
sun1200:00−6n22455 0.0 102912
03:00−7n224643 0.0 103012
06:00−6n224757 0.0 102912
09:00−3n11531 0.0 102715
12:00+2w0158100 0.0 1023147
15:00−1n117031 0.0 102310
18:00−5nne32584 0.0 103016
21:00−6nne22540 0.0 103111
13 december, mon
mon1300:00−7n11510 0.0 103110
03:00−8nnw11490 0.0 103110
06:00−8nnw11480 0.0 103110
09:00−4w01494 0.0 102814
12:000ssw11460 0.0 102399
15:00−2ssw11610 0.0 102418
18:00−7nnw11595 0.0 102810
21:00−8w116197 0.0 102910